Weather History for St. James, MN

Change the Weather History Date:

Wednesday, March 26, 2014

  Actual Average Record
Temperature  
Mean Temperature 35 °F -  
Max Temperature 51 °F 46 °F 86 °F (1999)
Min Temperature 19 °F 26 °F 1 °F (1964)
Degree Days  
Heating Degree Days 30    
Moisture  
Dew Point 23 °F    
Average Humidity 63    
Maximum Humidity 86    
Minimum Humidity 40    
Precipitation  
Precipitation 0.00 in - - ()
Sea Level Pressure  
Sea Level Pressure 29.81 in    
Wind  
Wind Speed 15 mph (SE)    
Max Wind Speed 29 mph    
Max Gust Speed 40 mph    
Visibility 10 miles    
Events      
Averages and records for this station are not official NWS values.
T = Trace of Precipitation, MM = Missing Value Source: NWS Daily Summary

Daily Weather History Graph

Daily Weather History Graph

Search for Another Location

Airport:

Trip Planner

Search our weather history database for the weather conditions in past years. The results will help you decide how hot, cold, wet, or windy it might be!

Date:

Astronomy

Mar. 26, 2014 Rise Set
Actual Time 7:10 AM CDT 7:38 PM CDT
Civil Twilight 6:41 AM CDT 8:06 PM CDT
Nautical Twilight 6:07 AM CDT 8:41 PM CDT
Astronomical Twilight 5:32 AM CDT 9:16 PM CDT
Moon 4:28 AM CDT (3/26) 3:09 PM CDT (3/26)
Length of Visible Light 13h 25m
Length of Day
12h 27m
Waning Crescent, 21% of the Moon is Illuminated
Mar 26
Waning Crescent
Mar 30
New
Apr 7
First Quarter
Apr 15
Full
Apr 22
Last Quarter

Hourly Weather History & Observations

Time (CDT) Temp. Windchill Dew Point Humidity Pressure Visibility Wind Dir Wind Speed Gust Speed Precip Events Conditions
12:15 AM 21.2 °F 11.7 °F 15.8 °F 80% 30.14 in 10.0 mi SE 8.1 mph - N/A   Clear
12:35 AM 21.2 °F 12.6 °F 15.8 °F 80% 30.14 in 10.0 mi SE 6.9 mph - N/A   Clear
12:55 AM 21.2 °F 10.9 °F 15.8 °F 80% 30.13 in 10.0 mi SE 9.2 mph - N/A   Clear
1:15 AM 21.2 °F 11.7 °F 15.8 °F 80% 30.13 in 10.0 mi SE 8.1 mph - N/A   Clear
1:35 AM 21.2 °F 10.9 °F 15.8 °F 80% 30.12 in 10.0 mi SE 9.2 mph - N/A   Clear
1:55 AM 21.2 °F 10.9 °F 15.8 °F 80% 30.11 in 10.0 mi SE 9.2 mph - N/A   Clear
2:15 AM 21.2 °F 11.7 °F 15.8 °F 80% 30.12 in 10.0 mi SSE 8.1 mph - N/A   Clear
2:35 AM 21.2 °F 10.9 °F 15.8 °F 80% 30.11 in 10.0 mi SE 9.2 mph - N/A   Clear
2:55 AM 21.2 °F 11.7 °F 15.8 °F 80% 30.11 in 10.0 mi SE 8.1 mph - N/A   Clear
3:15 AM 19.4 °F 9.5 °F 15.8 °F 86% 30.10 in 10.0 mi SE 8.1 mph - N/A   Clear
3:35 AM 21.2 °F 11.7 °F 15.8 °F 80% 30.10 in 10.0 mi SE 8.1 mph - N/A   Clear
3:54 AM 19.4 °F 9.5 °F 15.8 °F 86% 30.09 in 10.0 mi SE 8.1 mph - N/A   Clear
4:15 AM 21.2 °F 11.7 °F 17.6 °F 86% 30.08 in 10.0 mi SE 8.1 mph - N/A   Mostly Cloudy
4:35 AM 21.2 °F 10.9 °F 17.6 °F 86% 30.07 in 10.0 mi SE 9.2 mph - N/A   Overcast
4:55 AM 21.2 °F 11.7 °F 17.6 °F 86% 30.07 in 10.0 mi SE 8.1 mph - N/A   Scattered Clouds
5:15 AM 21.2 °F 10.1 °F 17.6 °F 86% 30.06 in 10.0 mi SE 10.4 mph - N/A   Scattered Clouds
5:34 AM 21.2 °F 10.9 °F 17.6 °F 86% 30.06 in 10.0 mi SE 9.2 mph - N/A   Clear
5:55 AM 21.2 °F 9.5 °F 17.6 °F 86% 30.06 in 10.0 mi SE 11.5 mph - N/A   Mostly Cloudy
6:15 AM 21.2 °F 8.9 °F 17.6 °F 86% 30.04 in 10.0 mi SE 12.7 mph 17.3 mph N/A   Overcast
6:35 AM 23.0 °F 11.1 °F 17.6 °F 80% 30.03 in 10.0 mi SE 12.7 mph - N/A   Overcast
6:55 AM 23.0 °F 10.6 °F 17.6 °F 80% 30.02 in 10.0 mi SE 13.8 mph - N/A   Overcast
7:15 AM 24.8 °F 13.4 °F 15.8 °F 69% 30.02 in 10.0 mi SE 12.7 mph - N/A   Overcast
7:35 AM 24.8 °F 13.4 °F 17.6 °F 74% 30.01 in 10.0 mi SE 12.7 mph - N/A   Overcast
7:55 AM 24.8 °F 12.4 °F 15.8 °F 69% 30.01 in 10.0 mi SE 15.0 mph - N/A   Overcast
8:14 AM 24.8 °F 12.4 °F 17.6 °F 74% 29.99 in 10.0 mi SE 15.0 mph - N/A   Mostly Cloudy
8:35 AM 26.6 °F 14.7 °F 15.8 °F 64% 29.98 in 10.0 mi SE 15.0 mph 20.7 mph N/A   Mostly Cloudy
8:55 AM 26.6 °F 13.4 °F 15.8 °F 64% 29.97 in 10.0 mi SE 18.4 mph - N/A   Scattered Clouds
9:15 AM 28.4 °F 15.4 °F 15.8 °F 59% 29.96 in 10.0 mi SE 19.6 mph 24.2 mph N/A   Clear
9:35 AM 28.4 °F 16.2 °F 15.8 °F 59% 29.95 in 10.0 mi SE 17.3 mph 24.2 mph N/A   Clear
9:55 AM 30.2 °F 18.1 °F 17.6 °F 60% 29.94 in 10.0 mi SE 18.4 mph - N/A   Clear
10:15 AM 32.0 °F 19.2 °F 15.8 °F 51% 29.92 in 10.0 mi SE 23.0 mph 27.6 mph N/A   Clear
10:35 AM 33.8 °F 21.6 °F 17.6 °F 52% 29.90 in 10.0 mi SE 23.0 mph 31.1 mph N/A   Clear
10:54 AM 33.8 °F 20.5 °F 17.6 °F 52% 29.88 in 10.0 mi SE 27.6 mph 32.2 mph N/A   Clear
11:15 AM 35.6 °F 24.2 °F 19.4 °F 52% 29.86 in 10.0 mi SE 21.9 mph 31.1 mph N/A   Clear
11:35 AM 37.4 °F 25.4 °F 19.4 °F 48% 29.83 in 10.0 mi SE 27.6 mph 35.7 mph N/A   Clear
11:54 AM 37.4 °F 25.9 °F 21.2 °F 52% 29.82 in 10.0 mi SE 25.3 mph 34.5 mph N/A   Clear
12:15 PM 39.2 °F 27.8 °F 21.2 °F 49% 29.81 in 10.0 mi SE 27.6 mph 35.7 mph N/A   Clear
12:35 PM 42.8 °F 33.3 °F 23.0 °F 46% 29.80 in 10.0 mi SSE 24.2 mph 33.4 mph N/A   Clear
12:55 PM 42.8 °F 32.7 °F 23.0 °F 46% 29.78 in 10.0 mi SSE 27.6 mph 36.8 mph N/A   Clear
1:15 PM 44.6 °F 35.5 °F 24.8 °F 46% 29.77 in 10.0 mi SSE 25.3 mph 33.4 mph N/A   Clear
1:35 PM 44.6 °F 35.5 °F 24.8 °F 46% 29.76 in 10.0 mi SSE 25.3 mph 34.5 mph N/A   Clear
1:55 PM 46.4 °F 37.7 °F 24.8 °F 43% 29.74 in 10.0 mi SE 26.5 mph 36.8 mph N/A   Clear
2:14 PM 46.4 °F 37.7 °F 24.8 °F 43% 29.72 in 10.0 mi SSE 26.5 mph 34.5 mph N/A   Clear
2:35 PM 48.2 °F - 24.8 °F 40% 29.70 in 10.0 mi SSE 27.6 mph 39.1 mph N/A   Clear
2:55 PM 48.2 °F - 26.6 °F 43% 29.68 in 10.0 mi SSE 25.3 mph 34.5 mph N/A   Clear
3:14 PM 48.2 °F - 28.4 °F 46% 29.67 in 10.0 mi SE 20.7 mph 36.8 mph N/A   Clear
3:35 PM 51.8 °F - 28.4 °F 41% 29.65 in 10.0 mi SE 25.3 mph 31.1 mph N/A   Clear
3:55 PM 51.8 °F - 28.4 °F 41% 29.64 in 10.0 mi SSE 25.3 mph 35.7 mph N/A   Clear
4:15 PM 51.8 °F - 28.4 °F 41% 29.62 in 10.0 mi SE 25.3 mph 40.3 mph N/A   Clear
4:35 PM 51.8 °F - 28.4 °F 41% 29.61 in 10.0 mi SSE 27.6 mph 36.8 mph N/A   Clear
4:55 PM 51.8 °F - 28.4 °F 41% 29.60 in 10.0 mi SE 24.2 mph 36.8 mph N/A   Clear
5:15 PM 51.8 °F - 28.4 °F 41% 29.59 in 10.0 mi SE 27.6 mph 34.5 mph N/A   Clear
5:35 PM 51.8 °F - 28.4 °F 41% 29.58 in 10.0 mi SSE 25.3 mph 31.1 mph N/A   Clear
5:55 PM 51.8 °F - 28.4 °F 41% 29.57 in 10.0 mi SE 25.3 mph 36.8 mph N/A   Clear
6:15 PM 51.8 °F - 30.2 °F 44% 29.57 in 10.0 mi SE 21.9 mph 27.6 mph N/A   Clear
6:35 PM 48.2 °F - 30.2 °F 50% 29.56 in 10.0 mi SE 18.4 mph 29.9 mph N/A   Clear
6:55 PM 46.4 °F 38.7 °F 30.2 °F 53% 29.55 in 10.0 mi SE 20.7 mph 27.6 mph N/A   Clear
7:15 PM 44.6 °F 36.9 °F 30.2 °F 57% 29.54 in 10.0 mi ESE 18.4 mph - N/A   Clear
7:35 PM 44.6 °F 36.6 °F 30.2 °F 57% 29.53 in 10.0 mi SE 19.6 mph 26.5 mph N/A   Clear
7:55 PM 42.8 °F 33.8 °F 30.2 °F 61% 29.52 in 10.0 mi SE 21.9 mph 27.6 mph N/A   Clear
8:15 PM 44.6 °F 35.7 °F 30.2 °F 57% 29.50 in 10.0 mi SE 24.2 mph 27.6 mph N/A   Clear
8:34 PM 44.6 °F 35.7 °F 30.2 °F 57% 29.50 in 10.0 mi SE 24.2 mph 29.9 mph N/A   Mostly Cloudy
8:55 PM 44.6 °F 36.1 °F 30.2 °F 57% 29.51 in 10.0 mi SE 21.9 mph 26.5 mph N/A   Overcast
9:09 PM 44.6 °F 36.9 °F 33.8 °F 66% 29.52 in 10.0 mi SE 18.4 mph 24.2 mph N/A   Overcast
9:35 PM 51.8 °F - 37.4 °F 58% 29.51 in 10.0 mi South 28.8 mph 38.0 mph N/A   Overcast
9:55 PM 50.0 °F - 37.4 °F 62% 29.52 in 10.0 mi SSE 23.0 mph 32.2 mph N/A   Overcast
10:15 PM 50.0 °F - 37.4 °F 62% 29.52 in 10.0 mi South 23.0 mph 29.9 mph N/A   Overcast
10:35 PM 46.4 °F 39.0 °F 37.4 °F 71% 29.52 in 10.0 mi SSE 19.6 mph 25.3 mph N/A   Overcast
10:55 PM 48.2 °F - 37.4 °F 66% 29.51 in 10.0 mi South 26.5 mph 34.5 mph N/A   Overcast
11:15 PM 48.2 °F - 39.2 °F 71% 29.51 in 10.0 mi South 28.8 mph 36.8 mph N/A   Overcast
11:35 PM 46.4 °F 39.5 °F 37.4 °F 71% 29.52 in 10.0 mi South 17.3 mph 23.0 mph N/A   Overcast
11:55 PM 46.4 °F 38.5 °F 39.2 °F 76% 29.52 in 10.0 mi South 21.9 mph 35.7 mph N/A   Overcast